When you browse on this site, cookies collect data to enhance your experience and personalize the content and advertising you see.
Visit our Privacy Policy to learn more. By continuing to use the site, you agree to this use of cookies and data.
  • In Germany
  • List of Countries
  • For 7 days
  • Water Temperature
  • Weather Map
  • Weather Widgets
  • user-avatar
    Login

    Hourly Weather Valerianovsk

    Today, 27 February, Thursday

    Time Temperature Precipitation Wind Pressure Humidity
    00:00 -7°C° 0 mm 2 mps 726 mmHg 92%
    01:00 -7°C° 0 mm 3 mps 727 mmHg 90%
    02:00 -8°C° 0 mm 3 mps 727 mmHg 89%
    03:00 -8°C° 0 mm 3 mps 728 mmHg 88%
    04:00 -10°C° 0 mm 4 mps 729 mmHg 87%
    05:00 -10°C° 0 mm 4 mps 729 mmHg 88%
    06:00 -10°C° 0 mm 3 mps 730 mmHg 89%
    07:00 -12°C° 0 mm 3 mps 730 mmHg 90%
    08:00 -11°C° 0 mm 4 mps 731 mmHg 87%
    09:00 -10°C° 0 mm 4 mps 731 mmHg 85%
    10:00 -9°C° 0 mm 4 mps 732 mmHg 82%
    11:00 -8°C° 0 mm 4 mps 732 mmHg 81%
    12:00 -6°C° 0 mm 3 mps 732 mmHg 80%
    13:00 -5°C° 0 mm 3 mps 732 mmHg 78%
    14:00 -5°C° 0 mm 3 mps 733 mmHg 81%
    15:00 -5°C° 0 mm 3 mps 733 mmHg 83%
    16:00 -5°C° 0 mm 3 mps 734 mmHg 86%
    17:00 -6°C° 0 mm 3 mps 734 mmHg 88%
    18:00 -7°C° 0 mm 2 mps 735 mmHg 90%
    19:00 -8°C° 0 mm 2 mps 735 mmHg 92%
    20:00 -7°C° 0 mm 1 mps 735 mmHg 93%
    21:00 -7°C° 0 mm 1 mps 736 mmHg 93%
    22:00 -7°C° 0 mm 1 mps 736 mmHg 94%
    23:00 -8°C° 0 mm 1 mps 736 mmHg 94%

    Tomorrow, 28 February, Friday

    Time Temperature Precipitation Wind Pressure Humidity
    00:00 -8°C° 0 mm 1 mps 736 mmHg 94%
    01:00 -8°C° 0 mm 1 mps 737 mmHg 95%
    02:00 -8°C° 0 mm 1 mps 737 mmHg 95%
    03:00 -8°C° 0 mm 1 mps 737 mmHg 95%
    04:00 -8°C° 0 mm 0 mps 737 mmHg 95%
    05:00 -7°C° 0.1 mm 0 mps 738 mmHg 95%
    06:00 -7°C° 0.1 mm 0 mps 738 mmHg 96%
    07:00 -6°C° 0.1 mm 0 mps 738 mmHg 96%
    08:00 -5°C° 0.2 mm 0 mps 738 mmHg 95%
    09:00 -4°C° 0.2 mm 0 mps 738 mmHg 95%
    10:00 -2°C° 0.2 mm 1 mps 738 mmHg 94%
    11:00 -1°C° 0.2 mm 1 mps 738 mmHg 95%
    12:00 0°C° 0.2 mm 1 mps 738 mmHg 96%
    13:00 +1°C° 0.2 mm 1 mps 737 mmHg 97%
    14:00 +1°C° 0.6 mm 1 mps 738 mmHg 97%
    15:00 +1°C° 0.6 mm 1 mps 738 mmHg 98%
    16:00 -1°C° 0.6 mm 2 mps 738 mmHg 98%
    17:00 +1°C° 0.3 mm 2 mps 738 mmHg 98%
    18:00 +1°C° 0.3 mm 2 mps 738 mmHg 98%
    19:00 +1°C° 0.3 mm 2 mps 738 mmHg 98%
    20:00 +1°C° 0.1 mm 2 mps 738 mmHg 98%
    21:00 +1°C° 0.1 mm 2 mps 739 mmHg 98%
    22:00 +2°C° 0.1 mm 2 mps 739 mmHg 98%
    23:00 +1°C° 0 mm 2 mps 739 mmHg 98%

    Day after tomorrow, 29 February, Saturday

    Time Temperature Precipitation Wind Pressure Humidity
    00:00 +1°C° 0 mm 2 mps 739 mmHg 97%
    01:00 +1°C° 0 mm 2 mps 739 mmHg 97%
    02:00 +1°C° 0.2 mm 2 mps 739 mmHg 97%
    03:00 +1°C° 0.2 mm 2 mps 738 mmHg 97%
    04:00 0°C° 0.2 mm 3 mps 738 mmHg 97%
    05:00 -1°C° 0.1 mm 3 mps 738 mmHg 96%
    06:00 -1°C° 0.1 mm 3 mps 737 mmHg 94%
    07:00 -2°C° 0.1 mm 3 mps 737 mmHg 93%
    08:00 -1°C° 0 mm 3 mps 736 mmHg 90%
    09:00 0°C° 0 mm 3 mps 736 mmHg 87%
    10:00 0°C° 0 mm 3 mps 735 mmHg 83%
    11:00 0°C° 0 mm 3 mps 735 mmHg 85%
    12:00 +1°C° 0 mm 3 mps 734 mmHg 86%
    13:00 +1°C° 0 mm 3 mps 734 mmHg 87%
    14:00 0°C° 0 mm 4 mps 734 mmHg 87%
    15:00 -1°C° 0 mm 4 mps 733 mmHg 87%
    16:00 -1°C° 0 mm 4 mps 733 mmHg 86%
    17:00 -2°C° 0 mm 4 mps 733 mmHg 88%
    18:00 -3°C° 0 mm 4 mps 733 mmHg 89%
    19:00 -3°C° 0 mm 4 mps 734 mmHg 91%
    20:00 -3°C° 0 mm 4 mps 734 mmHg 90%
    21:00 -3°C° 0 mm 4 mps 734 mmHg 90%
    22:00 -3°C° 0 mm 4 mps 735 mmHg 90%
    23:00 -4°C° 0 mm 4 mps 735 mmHg 90%

    1 March, Sunday

    Time Temperature Precipitation Wind Pressure Humidity
    00:00 -4°C° 0 mm 3 mps 736 mmHg 90%
    01:00 -4°C° 0 mm 3 mps 736 mmHg 90%
    02:00 -5°C° 0 mm 3 mps 737 mmHg 91%
    03:00 -5°C° 0 mm 3 mps 737 mmHg 91%
    04:00 -6°C° 0 mm 3 mps 737 mmHg 92%
    05:00 -6°C° 0 mm 3 mps 738 mmHg 92%
    06:00 -6°C° 0 mm 3 mps 738 mmHg 92%
    07:00 -7°C° 0 mm 3 mps 739 mmHg 92%
    08:00 -6°C° 0 mm 3 mps 739 mmHg 89%
    09:00 -5°C° 0 mm 4 mps 739 mmHg 87%
    10:00 -4°C° 0 mm 4 mps 739 mmHg 85%
    11:00 -4°C° 0 mm 4 mps 740 mmHg 84%
    12:00 -4°C° 0 mm 4 mps 740 mmHg 84%
    13:00 -3°C° 0 mm 4 mps 741 mmHg 83%
    14:00 -3°C° 0 mm 4 mps 741 mmHg 83%
    15:00 -4°C° 0 mm 4 mps 741 mmHg 83%
    16:00 -4°C° 0 mm 3 mps 741 mmHg 83%
    17:00 -5°C° 0 mm 3 mps 742 mmHg 85%
    18:00 -6°C° 0 mm 3 mps 742 mmHg 87%
    19:00 -6°C° 0 mm 2 mps 743 mmHg 90%
    20:00 -7°C° 0 mm 2 mps 743 mmHg 90%
    21:00 -7°C° 0 mm 2 mps 744 mmHg 91%
    22:00 -8°C° 0 mm 2 mps 744 mmHg 92%
    23:00 -9°C° 0 mm 2 mps 745 mmHg 92%

    2 March, Monday

    Time Temperature Precipitation Wind Pressure Humidity
    00:00 -9°C° 0 mm 2 mps 745 mmHg 92%
    01:00 -9°C° 0 mm 1 mps 745 mmHg 91%
    02:00 -10°C° 0 mm 1 mps 746 mmHg 91%
    03:00 -10°C° 0 mm 1 mps 746 mmHg 91%
    04:00 -10°C° 0 mm 1 mps 747 mmHg 90%
    05:00 -11°C° 0 mm 1 mps 747 mmHg 90%
    06:00 -11°C° 0 mm 1 mps 747 mmHg 90%
    07:00 -11°C° 0 mm 1 mps 747 mmHg 90%
    08:00 -9°C° 0 mm 1 mps 747 mmHg 86%
    09:00 -6°C° 0 mm 1 mps 748 mmHg 82%
    10:00 -3°C° 0 mm 1 mps 748 mmHg 79%
    11:00 -3°C° 0 mm 0 mps 748 mmHg 77%
    12:00 -1°C° 0 mm 0 mps 748 mmHg 76%
    13:00 0°C° 0 mm 0 mps 748 mmHg 75%
    14:00 0°C° 0 mm 0 mps 748 mmHg 77%
    15:00 0°C° 0 mm 0 mps 747 mmHg 79%
    16:00 0°C° 0 mm 0 mps 747 mmHg 81%
    17:00 -2°C° 0 mm 0 mps 747 mmHg 83%
    18:00 -4°C° 0 mm 0 mps 747 mmHg 85%
    19:00 -6°C° 0 mm 0 mps 747 mmHg 86%
    20:00 -7°C° 0 mm 0 mps 747 mmHg 86%
    21:00 -7°C° 0 mm 1 mps 747 mmHg 87%
    22:00 -8°C° 0 mm 1 mps 747 mmHg 87%
    23:00 -8°C° 0 mm 1 mps 747 mmHg 86%

    3 March, Tuesday

    Time Temperature Precipitation Wind Pressure Humidity
    00:00 -8°C° 0 mm 1 mps 747 mmHg 86%
    01:00 -8°C° 0 mm 1 mps 747 mmHg 86%
    02:00 -9°C° 0 mm 1 mps 747 mmHg 85%
    03:00 -9°C° 0 mm 1 mps 747 mmHg 84%
    04:00 -9°C° 0 mm 1 mps 747 mmHg 83%
    05:00 -9°C° 0 mm 1 mps 747 mmHg 84%
    06:00 -10°C° 0 mm 1 mps 746 mmHg 84%
    07:00 -10°C° 0 mm 1 mps 746 mmHg 84%
    08:00 -8°C° 0 mm 1 mps 746 mmHg 81%
    09:00 -6°C° 0 mm 1 mps 746 mmHg 79%
    10:00 -2°C° 0 mm 1 mps 746 mmHg 76%
    11:00 -1°C° 0 mm 1 mps 746 mmHg 76%
    12:00 0°C° 0 mm 1 mps 746 mmHg 75%
    13:00 +1°C° 0 mm 1 mps 746 mmHg 75%
    14:00 +1°C° 0 mm 1 mps 745 mmHg 77%
    15:00 0°C° 0 mm 1 mps 745 mmHg 80%
    16:00 0°C° 0 mm 1 mps 745 mmHg 82%
    17:00 -4°C° 0 mm 2 mps 745 mmHg 85%
    18:00 -6°C° 0 mm 2 mps 745 mmHg 88%
    19:00 -7°C° 0 mm 2 mps 745 mmHg 91%
    20:00 -8°C° 0 mm 2 mps 745 mmHg 91%
    21:00 -8°C° 0 mm 2 mps 745 mmHg 90%
    22:00 -9°C° 0 mm 2 mps 745 mmHg 90%
    23:00 -9°C° 0 mm 2 mps 745 mmHg 90%
    Show more